This is the latest recevied weather packets stored in our database for station/object KO4T-4. If no packets are shown the sender has not sent any weather packets the latest 10 day(s).
| Time | Temp. | Humidity | Pressure | Rain* | Wind** | Luminosity | Snow |
|---|---|---|---|---|---|---|---|
| 1777849803 | 21.11° C | 33% | 1014.1 hPa | 0 mm | - | - | - |
| 1777849503 | 21.11° C | 31% | 1014.2 hPa | 0 mm | - | - | - |
| 1777849204 | 21.11° C | 31% | 1014 hPa | 0 mm | - | - | - |
| 1777848904 | 21.11° C | 31% | 1014.1 hPa | 0 mm | - | - | - |
| 1777848604 | 21.11° C | 30% | 1014.1 hPa | 0 mm | - | - | - |
| 1777848303 | 21.67° C | 30% | 1014.1 hPa | 0 mm | - | - | - |
| 1777848004 | 21.11° C | 32% | 1014.1 hPa | 0 mm | - | - | - |
| 1777847704 | 21.67° C | 28% | 1014.1 hPa | 0 mm | - | - | - |
| 1777847403 | 21.67° C | 27% | 1014.1 hPa | 0 mm | - | - | - |
| 1777847104 | 21.67° C | 29% | 1014.1 hPa | 0 mm | - | - | - |
| 1777846804 | 21.67° C | 28% | 1014.1 hPa | 0 mm | - | - | - |
| 1777846503 | 21.67° C | 29% | 1014.1 hPa | 0 mm | - | - | - |
| 1777846204 | 21.11° C | 26% | 1014.2 hPa | 0 mm | - | - | - |
| 1777845904 | 21.67° C | 29% | 1014.2 hPa | 0 mm | - | - | - |
| 1777845603 | 22.22° C | 31% | 1014.3 hPa | 0 mm | - | - | - |
| 1777845304 | 21.67° C | 29% | 1014.3 hPa | 0 mm | - | - | - |
| 1777845004 | 21.11° C | 27% | 1014.3 hPa | 0 mm | - | - | - |
| 1777844703 | 21.11° C | 31% | 1014.4 hPa | 0 mm | - | - | - |
| 1777844403 | 21.11° C | 29% | 1014.5 hPa | 0 mm | - | - | - |
| 1777844104 | 21.11° C | 30% | 1014.5 hPa | 0 mm | - | - | - |
| 1777843804 | 20.56° C | 30% | 1014.6 hPa | 0 mm | - | - | - |
| 1777843503 | 20.56° C | 31% | 1014.7 hPa | 0 mm | - | - | - |
| 1777843204 | 21.11° C | 28% | 1014.7 hPa | 0 mm | - | - | - |
| 1777842903 | 21.11° C | 33% | 1014.8 hPa | 0 mm | - | - | - |
| 1777842604 | 21.11° C | 35% | 1014.9 hPa | 0 mm | - | - | - |
* Rain latest hour (hover to see other rain measurements)
** Current wind speed in m/s (hover to see current wind gust speed)